Regional Weather Roundup
Issued by NWS

Home | Current Version | Previous Version | Text Only | Print | Product List | Glossary On
Versions: 1 2 3 4 5 6 7 8 9 10 11 12 13 14 15 16 17 18 19 20 21 22 23 24 25 26 27 28 29 30 31 32 33 34 35 36 37 38 39 40 41 42 43 44 45 46 47 48 49 50
000
ASUS45 KBOU 261707
RWRCO

WEATHER ROUNDUP FOR COLORADO
NATIONAL WEATHER SERVICE DENVER/BOULDER CO
1100 AM MDT SAT JUL 26 2014

NOTE: "FAIR" INDICATES FEW OR NO CLOUDS BELOW 12000 FEET WITH NO
SIGNIFICANT WEATHER AND/OR OBSTRUCTIONS TO VISIBILITY.

COZ001>005-013-030-031-261800-
...NORTHWEST COLORADO...

CITY           SKY/WX    TMP DP  RH WIND       PRES   REMARKS
CRAIG          SUNNY     72  53  51 N6        30.28S
HAYDEN         SUNNY     75  46  35 E3        30.31S
MEEKER         SUNNY     80  48  32 CALM      30.29S
MOUNT WERNER   NOT AVBL
STEAMBOAT SPGS SUNNY     71  51  49 CALM      30.34R
WALDEN         MOSUNNY   70  48  46 CALM      30.42R
$$

COZ006>008-011-261800-
...WEST CENTRAL VALLEYS...

CITY           SKY/WX    TMP DP  RH WIND       PRES   REMARKS
GRAND JUNCTION SUNNY     83  51  33 S6        30.19S
MONTROSE       SUNNY     84  53  34 N5        30.27S
EAGLE          MOSUNNY   72  48  43 CALM      30.35F
RIFLE          SUNNY     81  48  31 VRB5      30.24F
DELTA          SUNNY     84  51  31 SE3       30.22F
NUCLA          SUNNY     82  45  26 N3        30.31S
$$

COZ017>023-064>068-261800-
...SOUTHWEST COLORADO...

CITY           SKY/WX    TMP DP  RH WIND       PRES   REMARKS
DURANGO        MOSUNNY   83  41  22 VRB3      30.32S
CORTEZ         SUNNY     84  48  28 E7        30.27F
PAGOSA SPRINGS MOSUNNY   79  39  23 SW6       30.41S
TELLURIDE      CLOUDY    70  46  43 CALM      30.53R
WOLF CREEK PAS NOT AVBL
$$

COZ009-010-012-014-032>034-037-058>063-261800-
...CENTRAL COLORADO...

CITY           SKY/WX    TMP DP  RH WIND       PRES   REMARKS
ASPEN          MOSUNNY   72  47  40 N5        30.40S
BUENA VISTA    MOSUNNY   75  42  30 CALM      30.41S
COPPER MTN     PTSUNNY   61  37  41 W21G26    30.74F
BERTHOUD PASS  PTSUNNY   54  37  54 N3        30.79R
COTTONWOOD PAS PTSUNNY   79  36  21 NW3       30.57R
GUNNISON       SUNNY     68  48  49 NE3       30.46F
KREMMLING      MOSUNNY   70  48  46 CALM      30.40F
LEADVILLE      MOSUNNY   65  42  43 W5        30.56S
MONARCH PASS   SUNNY     59  41  51 SW18G29   30.86R
SALIDA         MOSUNNY  N/A N/A N/A CALM      30.44F
SUNLIGHT       SUNNY     66  48  52 CALM      30.67R
WILKERSON PASS NOT AVBL
$$

COZ069>075-261800-
...SAN LUIS VALLEY/SANGRE DE CRISTO MOUNTAINS...

CITY           SKY/WX    TMP DP  RH WIND       PRES   REMARKS
ALAMOSA        SUNNY     75  51  43 SE6       30.39F
LA VETA PASS   SUNNY     70  41  35 CALM      30.61R
SAGUACHE       SUNNY     73  50  43 S6        30.42F
$$

COZ035-036-038>040-261800-
...NORTHERN COLORADO FRONT RANGE...

CITY           SKY/WX    TMP DP  RH WIND       PRES   REMARKS
DENVER INTL AP PTSUNNY   82  46  28 NE12      30.21R
DMNS CITY PARK   N/A     84  51  31 NE2G8     30.19S
AURORA         PTSUNNY   82  53  36 E9        30.22R
FRONT RANGE AP NOT AVBL
ERIE MUNI ARPT PTSUNNY   74  56  52 CALM      30.19S
BOULDER MUN AP PTSUNNY   77  46  33 CALM      30.20S
CENTENNIAL     PTSUNNY   85  46  25 VRB5      30.22R
BROOMFIELD     PTSUNNY   79  50  36 NW6       30.23R
FORT COLLINS   CLOUDY    77  54  44 CALM      30.19S
LONGMONT       CLOUDY    80  50  34 E7        30.20S
$$

COZ041-046-047-076>085-087-088-261800-
...PIKES PEAK/PALMER DIVIDE AND SOUTHERN FOOTHILLS...

CITY           SKY/WX    TMP DP  RH WIND       PRES   REMARKS
COLO. SPRINGS  PTSUNNY   87  42  20 E8        30.25R
A. F. ACADEMY  MOSUNNY   84  43  23 VRB2      30.27S
ELLICOTT       MOSUNNY   87  42  20 NE14      30.23R
FALCON         MOSUNNY   84  44  24 E10       30.32R
FORT CARSON    SUNNY     88  46  23 E6        30.22R
LIMON          SUNNY     87  46  24 N10G18    30.19R
MONUMENT HILL  MOSUNNY   79  45  29 NE5       30.32R
TRINIDAD       SUNNY     90  43  19 N13G20    30.19S
$$

COZ042>045-048>051-090-091-261800-
...NORTHEAST COLORADO...

CITY           SKY/WX    TMP DP  RH WIND       PRES   REMARKS
GREELEY ARPT   CLOUDY    73  54  49 CALM      30.17S
AKRON          MOSUNNY   84  48  28 N13G23    30.14R
BURLINGTON     SUNNY     91  51  25 N15G22    30.07R
WRAY             N/A     90  52  27 NW10G17   30.04S
STERLING       MOSUNNY   88  52  29 N12       30.08R
HOLYOKE        SUNNY     90  50  25 N15G21    30.05R
FORT MORGAN    MOSUNNY   82  39  22 N15       30.14R
$$

COZ086-089-092>099-261800-
...SOUTHEAST COLORADO...

CITY           SKY/WX    TMP DP  RH WIND       PRES   REMARKS
PUEBLO         SUNNY     91  49  23 N6        30.12R
LA JUNTA       SUNNY     86  59  39 SW7       30.08S
LAMAR          SUNNY     89  58  34 W9        30.02S
SPRINGFIELD      N/A     92  55  28 VRB6      30.07S
$$



USA.gov is the U.S. government's official web portal to all federal, state and local government web resources and services.